[[{"header":{"parameterUnit":"m.s-1","parameterCategory":1,"la1":30.2991,"la2":30.254,"lo1":-89.0895,"lo2":-89.0444,"dy":0.0017,"dx":0.0017,"nx":28,"ny":28,"refTime":"2023-10-15T21:00:00:Z","depth":0,"parameterNumber":2,"parameterNumberName":"U-component_of_WINDS"},"data":[0,0,0,0,0,0,0,0,0,0,0,0,0,0,0,0,0,0,0,0,0,0,0,0,0,0,0,0,0,0,0,0,0,0,0,0,0,0,0,0,0,0,0,0,0,0,0,0,0,0,0,0,0,0,0,0,0,0,0.295,0.295,0,0.2974,0.2975,0.2975,0.2998,0.2999,0.2999,0.2999,0.3024,0.3024,0.3024,0,0,0,0,0,0,0,0,0,0,0,0,0,0.2925,0.2925,0.295,0.295,0.2951,0.2974,0.2975,0.2975,0.2998,0.2999,0.2999,0.2999,0.3024,0.3024,0.3024,0,0,0,0,0,0,0,0,0,0,0,0,0,0.2941,0.2925,0.295,0.2965,0.2967,0.2974,0.2975,0.2975,0.2998,0.2999,0.2999,0.3,0.3023,0.3024,0.3025,0.3019,0,0,0.3026,0.3026,0,0,0,0,0,0,0,0,0.294,0.2942,0.2963,0.2964,0.2966,0.2984,0.2975,0.299,0.2998,0.2986,0.2999,0.3,0.301,0.3012,0.3015,0.302,0.3021,0.3026,0.3027,0.3027,0.3027,0,0,0,0,0,0,0,0.2939,0.2941,0.296,0.2963,0.2965,0.2971,0.2974,0.2978,0.2995,0.2987,0.2989,0.2992,0.3011,0.3015,0.3016,0.3021,0.3026,0.3027,0.3027,0.3027,0.3023,0.3023,0,0,0,0,0,0,0.2936,0.294,0.2959,0.296,0.2954,0.2971,0.2974,0.2978,0.2995,0.2998,0.2991,0.2993,0.3013,0.3015,0.3017,0.3011,0.3027,0.3027,0.3028,0.3024,0.3023,0.3023,0,0,0,0,0,0,0.2935,0.2937,0.2958,0.2951,0.2954,0.2971,0.2975,0.2978,0.2981,0.2998,0.3002,0.2992,0.3014,0.3016,0.3018,0.3013,0.3028,0.3028,0.3024,0.3023,0.3023,0.3,0,0,0,0,0,0,0.2934,0.2937,0.2934,0.295,0.2954,0.2959,0.2974,0.2978,0.2982,0.2984,0.2999,0.3002,0.3014,0.3017,0.3019,0.3014,0.3028,0.3025,0.3024,0.3023,0.3002,0.2999,0.2997,0,0,0,0,0,0.2933,0.2927,0.2934,0.2936,0.2952,0.2958,0.296,0.2974,0.2982,0.298,0.2991,0.3002,0.3013,0.3017,0.3019,0.3014,0.3025,0.3024,0.3023,0.3003,0.2999,0.2997,0,0,0,0,0,0,0.2909,0.2929,0.2937,0.2936,0.2945,0.2962,0.296,0.297,0.2977,0.2979,0.2996,0.2999,0.3,0.3007,0.3012,0.301,0.3021,0.302,0.3005,0.3002,0.2999,0.2997,0.3029,0,0,0,0,0,0.2904,0.2908,0.2925,0.2922,0.2926,0.2942,0.2946,0.2956,0.2966,0.297,0.2981,0.299,0.2996,0.3,0.3006,0.3003,0.3007,0.3001,0.2998,0.2996,0.2995,0.2995,0.2992,0.3019,0.3019,0.3019,0,0,0.2893,0.2904,0.2905,0.2918,0.2926,0.2929,0.2945,0.2948,0.2951,0.297,0.2973,0.2982,0.2993,0.2993,0.2994,0.3,0.2989,0.2995,0.2993,0.2993,0.2993,0.2991,0.2989,0.3019,0.3019,0.3019,0,0,0.2874,0.2883,0.2882,0.289,0.2903,0.2914,0.2913,0.2929,0.2935,0.2938,0.2953,0.2957,0.2966,0.2974,0.2979,0.2965,0.2976,0.2967,0.2953,0.2953,0.2951,0.2949,0.2944,0.2941,0.2966,0.2966,0.2966,0,0.2859,0.2864,0.288,0.2882,0.2887,0.2906,0.2905,0.2912,0.2926,0.2929,0.2935,0.2948,0.2957,0.2959,0.2956,0.296,0.296,0.2964,0.295,0.2948,0.2947,0.2942,0.294,0.2965,0.2965,0.2965,0.2965,0,0.2844,0.2848,0.2846,0.2859,0.2864,0.2865,0.2881,0.2884,0.2894,0.2904,0.2908,0.292,0.2929,0.293,0.294,0.2934,0.2937,0.2947,0.2958,0.2943,0.2938,0.2937,0.2963,0.2963,0.2964,0.2964,0,0,0.281,0.2833,0.2832,0.2838,0.2854,0.2857,0.2859,0.2868,0.287,0.288,0.2882,0.289,0.2899,0.2905,0.2916,0.2916,0.2903,0.2925,0.2926,0.292,0.2898,0.289,0.2887,0.2911,0.2911,0.2911,0.2896,0,0.2794,0.2798,0.2812,0.2812,0.2816,0.2834,0.2836,0.2845,0.2856,0.286,0.2872,0.2877,0.2889,0.2893,0.2893,0.2905,0.2899,0.2906,0.2913,0.2913,0.2908,0.2885,0.2877,0.2863,0.2895,0.2895,0.2894,0,0.2775,0.2783,0.2783,0.2799,0.2801,0.2802,0.2812,0.2817,0.2829,0.2836,0.2843,0.2856,0.2859,0.287,0.2875,0.288,0.2884,0.289,0.289,0.289,0.2902,0.2884,0.2859,0.2856,0.2892,0.2892,0.2892,0,0.2749,0.276,0.2762,0.2767,0.2786,0.2786,0.2794,0.2807,0.2812,0.2821,0.2824,0.2833,0.2838,0.2845,0.286,0.2867,0.2863,0.2875,0.2869,0.2869,0.2867,0.2866,0.2841,0.287,0.287,0.287,0.2871,0,0.2729,0.2728,0.2751,0.2751,0.2751,0.2769,0.2768,0.2778,0.2789,0.2793,0.2809,0.2812,0.2832,0.2837,0.2849,0.2851,0.2853,0.286,0.2863,0.2858,0.2857,0.286,0.2861,0.287,0.287,0.287,0.287,0,0.2699,0.2715,0.2718,0.2736,0.274,0.2739,0.2755,0.2757,0.2768,0.2772,0.2774,0.2792,0.28,0.2816,0.2827,0.2835,0.2834,0.284,0.283,0.2832,0.2824,0.2824,0.2799,0.2796,0.2828,0.2828,0.2828,0,0.2685,0.2685,0.2703,0.2706,0.2714,0.2719,0.2724,0.2742,0.2747,0.2761,0.2761,0.277,0.2777,0.2788,0.2802,0.2811,0.2817,0.2807,0.2818,0.2813,0.2816,0.2816,0.2816,0.2804,0.2804,0.2804,0.2803,0,0.2657,0.2665,0.2672,0.2681,0.2687,0.2696,0.2705,0.2707,0.2727,0.2732,0.2739,0.2745,0.2757,0.2765,0.2777,0.2785,0.2798,0.28,0.2799,0.2793,0.2787,0.279,0.2822,0.28,0.2801,0.2801,0.2801,0.2801,0.2635,0.2636,0.2649,0.2656,0.2665,0.2673,0.2676,0.2688,0.2695,0.2706,0.2716,0.2723,0.2736,0.2752,0.276,0.2766,0.2772,0.2771,0.277,0.2769,0.2767,0.2787,0.2768,0.2768,0.2768,0.2769,0.2769,0,0.2608,0.2617,0.2624,0.2636,0.2642,0.2654,0.2665,0.2669,0.2675,0.2686,0.2693,0.2702,0.2711,0.2726,0.2736,0.2737,0.2743,0.2739,0.2739,0.2741,0.2761,0.2761,0.2734,0.2734,0.2734,0.2734,0.2734,0.2734,0.2594,0.2596,0.2606,0.2613,0.2622,0.2629,0.2634,0.2642,0.2651,0.2661,0.2668,0.2678,0.2691,0.2702,0.2711,0.2715,0.2718,0.2712,0.2718,0.2736,0.2739,0.2742,0.2742,0.2712,0.2712,0.2697,0.2697,0.2697]},{"header":{"parameterUnit":"m.s-1","parameterCategory":1,"la1":30.2991,"la2":30.254,"lo1":-89.0895,"lo2":-89.0444,"dy":0.0017,"dx":0.0017,"nx":28,"ny":28,"refTime":"2023-10-15T21:00:00:Z","depth":0,"parameterNumber":3,"parameterNumberName":"V-component_of_WINDS"},"data":[0,0,0,0,0,0,0,0,0,0,0,0,0,0,0,0,0,0,0,0,0,0,0,0,0,0,0,0,0,0,0,0,0,0,0,0,0,0,0,0,0,0,0,0,0,0,0,0,0,0,0,0,0,0,0,0,0,0,-6.8906,-6.8907,0,-6.8983,-6.8984,-6.8985,-6.893,-6.8927,-6.8925,-6.8922,-6.8996,-6.9,-6.9005,0,0,0,0,0,0,0,0,0,0,0,0,0,-6.8708,-6.8712,-6.8906,-6.8907,-6.8908,-6.8983,-6.8984,-6.8985,-6.893,-6.8927,-6.8924,-6.8921,-6.8995,-6.9,-6.9005,0,0,0,0,0,0,0,0,0,0,0,0,0,-6.879,-6.8713,-6.8906,-6.889,-6.8889,-6.8983,-6.8984,-6.8986,-6.8931,-6.8927,-6.8923,-6.892,-6.8993,-6.8999,-6.9006,-6.9118,0,0,-6.9025,-6.9028,0,0,0,0,0,0,0,0,-6.8786,-6.8798,-6.8891,-6.8891,-6.8891,-6.8943,-6.8941,-6.903,-6.8932,-6.8915,-6.8922,-6.8918,-6.8981,-6.8988,-6.9011,-6.9121,-6.9125,-6.9026,-6.9029,-6.9032,-6.9034,0,0,0,0,0,0,0,-6.878,-6.8794,-6.8937,-6.8893,-6.8892,-6.8878,-6.8885,-6.8958,-6.8967,-6.8916,-6.8912,-6.8922,-6.898,-6.9005,-6.9012,-6.9126,-6.9025,-6.9031,-6.9035,-6.9037,-6.9334,-6.9338,0,0,0,0,0,0,-6.8777,-6.879,-6.8934,-6.8939,-6.8828,-6.8884,-6.8893,-6.893,-6.8967,-6.8969,-6.8925,-6.8919,-6.8996,-6.9005,-6.9014,-6.915,-6.9032,-6.9038,-6.9042,-6.933,-6.9335,-6.9339,0,0,0,0,0,0,-6.8773,-6.879,-6.8931,-6.8863,-6.888,-6.8892,-6.8934,-6.8933,-6.8958,-6.8974,-6.8975,-6.8949,-6.8993,-6.9005,-6.9093,-6.9151,-6.9041,-6.9047,-6.9325,-6.9332,-6.9337,-6.942,0,0,0,0,0,0,-6.8767,-6.8789,-6.8832,-6.8865,-6.8884,-6.901,-6.8937,-6.8938,-6.8969,-6.8962,-6.8996,-6.8998,-6.8991,-6.9084,-6.91,-6.9158,-6.9052,-6.932,-6.9328,-6.9335,-6.9412,-6.9429,-6.9442,0,0,0,0,0,-6.876,-6.8851,-6.8835,-6.8853,-6.8939,-6.9014,-6.9024,-6.9016,-6.8974,-6.9018,-6.9028,-6.8997,-6.9143,-6.9094,-6.9111,-6.9172,-6.9316,-6.9326,-6.9335,-6.9406,-6.9425,-6.9442,0,0,0,0,0,0,-6.8823,-6.8855,-6.8837,-6.8942,-6.8976,-6.9004,-6.9059,-6.9037,-6.9082,-6.9073,-6.906,-6.9068,-6.9161,-6.9175,-6.912,-6.9283,-6.9223,-6.9236,-6.9271,-6.929,-6.9304,-6.9299,-6.9057,0,0,0,0,0,-6.8849,-6.8909,-6.8933,-6.9023,-6.9041,-6.9047,-6.9079,-6.907,-6.9104,-6.9118,-6.9134,-6.9167,-6.922,-6.9256,-6.9305,-6.9414,-6.9421,-6.9465,-6.948,-6.9492,-6.9503,-6.9563,-6.9583,-6.937,-6.9369,-6.9369,0,0,-6.8903,-6.8928,-6.8966,-6.9036,-6.9061,-6.9122,-6.9059,-6.9126,-6.9171,-6.9127,-6.9212,-6.9226,-6.9261,-6.9361,-6.9406,-6.9376,-6.9564,-6.9503,-6.9513,-6.9518,-6.9575,-6.9595,-6.9613,-6.9376,-6.9375,-6.9374,0,0,-6.9034,-6.9059,-6.9137,-6.9164,-6.9204,-6.9208,-6.9227,-6.926,-6.9268,-6.9354,-6.9323,-6.9375,-6.9467,-6.9494,-6.952,-6.9663,-6.9636,-6.968,-6.9758,-6.9816,-6.9833,-6.9848,-6.99,-6.9919,-6.9691,-6.9691,-6.9691,0,-6.9096,-6.9188,-6.9179,-6.925,-6.9281,-6.9247,-6.9326,-6.9353,-6.9406,-6.9428,-6.9394,-6.9511,-6.9532,-6.9638,-6.9674,-6.9695,-6.9716,-6.9676,-6.9832,-6.9847,-6.986,-6.991,-6.9929,-6.9696,-6.9696,-6.9695,-6.9695,0,-6.9262,-6.9327,-6.9385,-6.9441,-6.9479,-6.9553,-6.9555,-6.9595,-6.9583,-6.9591,-6.9679,-6.9704,-6.9759,-6.9783,-6.9771,-6.9888,-6.9869,-6.9834,-6.9772,-6.9886,-6.9932,-6.9951,-6.9704,-6.9702,-6.97,-6.9699,0,0,-6.9433,-6.9485,-6.9507,-6.9532,-6.9575,-6.9624,-6.9697,-6.9753,-6.9788,-6.9826,-6.9886,-6.9966,-6.9935,-6.9964,-6.9955,-7.0007,-7.012,-6.9965,-6.9966,-6.9994,-7.0252,-7.0279,-7.0301,-7.0103,-7.0106,-7.0109,-7.0249,0,-6.9567,-6.9696,-6.9691,-6.9811,-6.9871,-6.984,-6.9904,-6.9936,-6.9946,-6.9997,-7.0006,-7.0064,-7.0017,-7.0035,-7.0085,-7.0096,-7.0172,-7.0086,-7.0159,-7.0161,-7.0151,-7.0325,-7.0353,-7.0484,-7.0267,-7.027,-7.0273,0,-6.9739,-6.9787,-6.9913,-6.9949,-6.9974,-7.0032,-7.0084,-7.0133,-7.0169,-7.0172,-7.0207,-7.019,-7.0263,-7.0201,-7.0301,-7.0243,-7.0272,-7.0283,-7.0288,-7.0294,-7.0224,-7.0337,-7.0526,-7.0546,-7.0301,-7.0299,-7.0297,0,-6.9853,-6.9948,-7.0036,-7.0059,-7.0103,-7.0144,-7.0164,-7.0197,-7.0231,-7.0276,-7.0299,-7.0351,-7.0379,-7.042,-7.0417,-7.0372,-7.052,-7.0456,-7.0524,-7.0525,-7.0557,-7.0555,-7.0754,-7.0575,-7.0575,-7.0574,-7.0574,0,-7.0003,-7.0081,-7.0088,-7.0143,-7.0231,-7.0225,-7.0311,-7.0326,-7.0356,-7.0413,-7.0388,-7.0441,-7.0435,-7.0488,-7.0486,-7.0571,-7.0583,-7.0588,-7.0586,-7.0591,-7.059,-7.061,-7.0601,-7.058,-7.0578,-7.0577,-7.0577,0,-7.0144,-7.0152,-7.0246,-7.0281,-7.0292,-7.0355,-7.0384,-7.0435,-7.0443,-7.0515,-7.0532,-7.0543,-7.0605,-7.0607,-7.0677,-7.0676,-7.0779,-7.0767,-7.0768,-7.0766,-7.0834,-7.0828,-7.1053,-7.1082,-7.0884,-7.0886,-7.0887,0,-7.0239,-7.03,-7.0342,-7.038,-7.0403,-7.0462,-7.0499,-7.0495,-7.0533,-7.0581,-7.0627,-7.0687,-7.0734,-7.0834,-7.0848,-7.0902,-7.0892,-7.0967,-7.0899,-7.0902,-7.0894,-7.0891,-7.0897,-7.098,-7.0982,-7.0984,-7.0985,0,-7.0408,-7.041,-7.0464,-7.0521,-7.0565,-7.0609,-7.0649,-7.068,-7.0681,-7.0726,-7.079,-7.0827,-7.09,-7.096,-7.1013,-7.1031,-7.1009,-7.1007,-7.1025,-7.103,-7.1029,-7.1032,-7.0805,-7.1001,-7.1,-7.0999,-7.0998,-7.0997,-7.053,-7.0584,-7.0623,-7.0684,-7.0715,-7.0754,-7.0805,-7.082,-7.0874,-7.0935,-7.0929,-7.1001,-7.1036,-7.1105,-7.1129,-7.1184,-7.1158,-7.1184,-7.1191,-7.1198,-7.1206,-7.102,-7.1193,-7.1193,-7.1192,-7.1192,-7.1192,0,-7.0699,-7.0723,-7.078,-7.0839,-7.0888,-7.0864,-7.0908,-7.095,-7.1014,-7.105,-7.1099,-7.1173,-7.1232,-7.1251,-7.1308,-7.1349,-7.134,-7.1364,-7.1361,-7.1366,-7.1226,-7.1205,-7.137,-7.137,-7.137,-7.137,-7.137,-7.137,-7.0793,-7.0882,-7.0889,-7.0993,-7.1016,-7.1088,-7.1115,-7.1151,-7.118,-7.1265,-7.1315,-7.1328,-7.1358,-7.1417,-7.1469,-7.1473,-7.1496,-7.1524,-7.1524,-7.1393,-7.1375,-7.1358,-7.1338,-7.1529,-7.1529,-7.1659,-7.166,-7.1661]}]]